sat.trackr.live / text

‹ back to catalog

STARLINK-11370 [DTC]

NORAD 61584 · 2024-187L

PAYLOAD ACTIVE UNKNOWN

§ Identity

Operator
Country
US
Launch date
2024-10-18
Launch site
AFETR
Launch vehicle
Mass (kg)
RCS (m²)

Purposes: comms

External: N2YO · Heavens-Above · Gunter

§ Orbital elements

Epoch: 2026-09-21T21:25:39.880416Z

Period
91.74 min
Inclination
53.1606°
Eccentricity
0.0001078
Mean motion
15.69716590 rev/d
Perigee alt
359.0 km
Apogee alt
360.4 km
Semi-major
6,737.8 km
B*
1.3319e-5
RAAN
49.2278°
Arg perigee
104.4575°
Mean anomaly
255.6563°
Rev number
11,156

§ Raw data

STARLINK-11370 [DTC]1 61584U 24187L   26264.89282269  .00001026  00000+0  13319-4 0  99912 61584  53.1606  49.2278 0001078 104.4575 255.6563 15.69716590111566

JSON: /api/v1/satellites/61584 · /tle

For live sub-satellite position, see the globe view (requires WebGL).

§ Visibility from observer

Set your observer location to see the next 7 days of passes ≥ 10°. The values pass through the URL so the page stays shareable.

No JS? Fill the form by hand. The geolocation button needs JavaScript.